User: anonymous   Login
Location: Unspecified
(0.0000°N, 0.0000°E)
Time: 16:43:34
(UTC+00:00)
Language:

USA 268 - Orbit

View from above orbital plane
View from above orbital plane
View from above satellite
View from above satellite

Ground track
Ground track

The orbit data is extracted from the following two-line orbital elements,

1 41584U 16036A   17083.16212939 0.00000000  00000-0  00000-0 0    03
2 41584   7.3626 352.8190 0062574  34.1299 326.2945  1.00353021    04
Epoch (UTC): 24 March 2017 03:53:27
Eccentricity: 0.0062574
inclination: 7.3626°
perigee height: 35500 km
apogee height: 36027 km
right ascension of ascending node: 352.8190°
argument of perigee: 34.1299°
revolutions per day: 1.00353021
mean anomaly at epoch: 326.2945°
orbit number at epoch: 0

The dashed part of the orbit path shows where the satellite is in the earth's shadow,  

DLR